FENGYUN 1C DEB

Satellite information

Favourite Embed

Satellite Type and Status

DEBRISIN ORBIT

Key statistics

Satellite FENGYUN 1C DEB at a glance.

Uptime

9656

Days in orbit

Revolutions

≈ 14.3

Per day

Orbit

SSO

Sun Synchronous Orbit

Inclination

99.1

Latest

Satellite identification and parameters

Extended collection of information and parameters for FENGYUN 1C DEB.

Object identification

Identified? True

Debris? True

Object name: FENGYUN 1C DEB

International designator: 1999-025DPS

Object number (NORAD): 35210

Object ID (CCSDS): 35210

Country: PEOPLES REPUBLIC OF CHINA (PRC)

Current information (Y/N): Y

RCS size: SMALL

Orbital parameters

Period: 100.53 minutes

Inclination: 99.101 deg

SMA: 7161.824 km

Apoapsis: 821.16 km

Periapsis: 746.217 km

RAAN: 289.6575 deg

Eccentricy: 0.00523211

Argument of periapsis: 48.5202 deg

Mean anomaly: 131.8085 deg

Mean motion: 14.3240987 rev/day

Mean motion (dot): 0.00009068 rev/day2

B* drag term: 0.0033148833 1/REarth

Two-line elements (TLE)

Creation date: Oct. 16, 2025, 2:37 a.m.

Reference frame: TEME

Reference center: EARTH

Epoch: Oct. 15, 2025, 6:22 p.m. UTC

TLE line 0: 0 FENGYUN 1C DEB

TLE line 1: 1 35210U 99025DPS 25288.76583939 .00009068 00000-0 33149-2 0 9996

TLE line 2: 2 35210 99.1010 289.6575 0052321 48.5202 131.8085 14.32409870892923

Live tracking on map

Real-time ground track for satellite FENGYUN 1C DEB.

In-orbit conjunctions

A list of the most updated potential collisions computed for object FENGYUN 1C DEB.

Target Orbit TCA Probability of collision Miss distance Type
IRS B3 SSO 2025-05-12 01:17:25 0.0003300171 282.0 (m) PAYLOAD
DMSP 5D-2 F11 (USA 73) SSO 2025-04-07 19:22:03 0.0001493862 819.0 (m) PAYLOAD
SL-16 R/B LEO 2024-11-11 23:48:24 0.0001967633 409.0 (m) ROCKET BODY

Associated space launch

Chinese polar orbiting meteorological satellite

FENGYUN 1C DEB was lifted into orbit during the mission ‘Long March 4B | Feng Yun 1C’, on board a Long March 4B space rocket.

The launch took place on May 10, 1999, 1:33 a.m. from Launch Complex 7.

For more information about the launch, click the button.

Launch to space Long March 4B | Feng Yun 1C
Long March 4B | Feng Yun 1C

Agency: N/A

Status: Launch Successful

Launch date: May 10, 1999, 1:33 a.m. UTC

Rocket: Long March 4B

Launch pad: Launch Complex 7

Location: Taiyuan Satellite Launch Center, People's Republic of China

...

Latest news about this satellite

There are no fresh news available about this satellite. Check back as we update our databases every day.


Newsletter sign-up

Weekly statistics, charts and insights to help you stay on top of the space industry.